Simultaneous Nadir Overpasses (SNOs) Predictions

Prediction of SNOs between AURA and NPP Satellite Orbit:

Table of predicted SNOs for the next 14.0 days since TLE Epoch: 5/1/2015
Index Date (AURA) Time (AURA) Lat,Lon (AURA) SZA (AURA ) Date (NPP) Time (NPP) Lat,Lon (NPP) SZA (NPP ) Distance(km) Time Diff (sec)
1 05/03/2015 16:41:56 78.06, 178.37 78.74 05/03/2015 16:40:53 78.05, 178.29 78.81 1.99 63
2 05/03/2015 17:31:12 -78.55, -11.56 101.91 05/03/2015 17:31:26 -78.54, -11.68 101.89 3.02 14
3 05/06/2015 08:58:23 78.21, -65.06 77.79 05/06/2015 08:57:45 78.20, -65.18 77.85 2.74 38
4 05/06/2015 09:47:35 -78.86, 105.99 103.08 05/06/2015 09:48:13 -78.87, 106.11 103.14 2.54 38
5 05/09/2015 01:14:46 78.46, 52.04 76.74 05/09/2015 01:14:33 78.45, 52.02 76.75 0.49 13
6 05/09/2015 02:04:04 -78.85,-138.18 103.81 05/09/2015 02:05:08 -78.85,-138.24 103.84 1.36 64
7 05/11/2015 16:41:57 -78.14, -1.27 103.55 05/11/2015 16:40:52 -78.14, -1.28 103.49 0.13 65
8 05/11/2015 17:31:12 78.59, 168.63 75.87 05/11/2015 17:31:25 78.59, 168.56 75.87 1.43 13
9 05/14/2015 08:58:20 -78.39, 115.79 104.51 05/14/2015 08:57:41 -78.39, 115.87 104.50 1.85 39




NCC Satellite Simultaneous Nadir Overpasses (SNOs) Prediction Service
